Voltar ao catálogo

STARLINK-11503

AtivoComunicaçõesVLEO
NORAD 63142·PAYLOAD·🇺🇸 United States

Lançado Mar 3, 2025 de Cape Canaveral Space Force Station

Loading…

Próximas Passagens (próximas 24 horas)

TLE

AtualizadoSource: CelesTrak SupGP

Época: Sep 15, 2026, 02:55 UTC

1 63142C 25043L   26258.12201389 -.00015654  00000+0 -12160-3 0  2582
2 63142  43.0005 188.4614 0001661 263.6978 310.7368 15.70842606    15

Acompanhe STARLINK-11503 em tempo real com AllMySat

Download on the App Store